www.pogodaiklimat.ru

Погода и климат >> Архив погоды >> Кувейт >> Jahra


ПОГОДА в Jahra

  • Прогноз погоды в Jahra
  • Монитор погоды в Jahra
  • Климат города

АРХИВ ПОГОДЫ в Jahra

Время (UTC), дата Ветер
(напр.,м/с)
 
Видим.   Явления Облачность Т
(С)
Тd
(С)
f
(%)
Тe
(С)
Тes
(С)
Комфортность P
(гПа)
Po
(гПа)
Тmin
(С)
Tmax
(С)
R
(мм)
R24
(мм)
S
(см)
09 18.06 СЗ 4-9
{13}
н/о н/о +45.4 +0.8 7 +42 +42 опасность
перегрева
1000.5 1001.0
12 18.06 СЗ 5-13
{13}
н/о н/о +46.2 +1.0 6 +42 +42 опасность
перегрева
999.7 1000.0
15 18.06 СЗ 4-13
{13}
н/о н/о +44.1 +1.0 7 +40 +40 очень
жарко
999.7 1000.0
18 18.06 СЗ 2-5
{13}
н/о н/о +40.4 +2.6 10 +37 +37 очень
жарко
1001.4 1001.0
21 18.06 СЗ 4-8
{8}
н/о н/о +37.4 +3.7 12 +34 +34 очень
жарко
1001.1 1001.0 +33.8 +46.8
00 19.06 З 3-6
{9}
н/о н/о +35.4 +3.7 14 +32 +32 жарко 1001.5 1002.0
03 19.06 СЗ 3-8
{9}
н/о н/о +33.1 +5.7 18 +31 +31 жарко 1002.7 1003.0
06 19.06 С 7-13
{13}
н/о н/о +39.5 +2.1 10 +36 +36 очень
жарко
1003.1 1003.0
09 19.06 СЗ 4-9
{13}
н/о н/о +43.9 +1.3 7 +40 +40 очень
жарко
1003.4 1003.0
12 19.06 СЗ 4-9
{13}
н/о н/о +45.8 +1.8 7 +42 +42 опасность
перегрева
1002.5 1003.0
15 19.06 С 5-10
{10}
н/о н/о +42.7 +2.8 9 +39 +39 очень
жарко
1002.8 1003.0
18 19.06 СЗ 2-6
{10}
н/о н/о +39.0 +4.2 12 +36 +36 очень
жарко
1004.5 1005.0
21 19.06 СЗ 2-5
{7}
н/о н/о +36.3 +3.9 13 +33 +33 жарко 1004.2 1004.0 +32.9 +46.4
00 20.06 С 2-5
{7}
н/о н/о +34.3 +2.8 14 +31 +31 жарко 1003.4 1003.0
03 20.06 З 4-7
{7}
н/о н/о +32.6 +5.1 18 +30 +30 жарко 1004.6 1005.0
06 20.06 СЗ 4-10
{10}
н/о н/о +40.6 +2.8 10 +37 +37 очень
жарко
1004.5 1005.0
09 20.06 СЗ 5-12
{13}
н/о н/о +44.8 +2.4 8 +42 +42 опасность
перегрева
1003.9 1004.0
12 20.06 СЗ 4-13
{13}
н/о н/о +45.4 +2.2 7 +42 +42 опасность
перегрева
1002.9 1003.0
15 20.06 СЗ 3-8
{13}
н/о н/о +42.9 +3.5 9 +40 +40 очень
жарко
1003.1 1003.0
18 20.06 СЗ 2-8
{13}
н/о н/о +39.3 +3.7 11 +36 +36 очень
жарко
1004.4 1004.0
21 20.06 СЗ 3-7
{8}
н/о н/о +36.6 +4.3 14 +34 +34 очень
жарко
1003.7 1004.0 +31.6 +46.2
00 21.06 СЗ 3-7
{9}
н/о н/о +34.1 +3.2 14 +31 +31 жарко 1003.4 1003.0
03 21.06 Ю 2-7
{8}
н/о н/о +32.5 +3.3 16 +30 +30 жарко 1004.5 1005.0
06 21.06 СЗ 4-10
{10}
н/о н/о +39.7 +2.7 10 +36 +36 очень
жарко
1005.1 1005.0
09 21.06 СЗ 5-13
{15}
н/о н/о +43.0 +1.1 8 +39 +39 очень
жарко
1004.0 1004.0
12 21.06 СЗ 5-10
{15}
н/о н/о +43.8 -1.4 6 +40 +40 очень
жарко
1002.9 1003.0
15 21.06 СЗ 4-9
{12}
н/о н/о +41.8 +0.3 8 +38 +38 очень
жарко
1003.1 1003.0
18 21.06 СЗ 3-8
{12}
н/о н/о +38.0 +2.3 11 +35 +35 очень
жарко
1004.6 1005.0
21 21.06 З 3-5
{6}
н/о н/о +34.5 +3.8 15 +32 +32 жарко 1004.3 1004.0 +32.1 +44.3
00 22.06 З 4-7
{7}
н/о н/о +31.7 +4.7 18 +29 +29 жарко 1003.4 1003.0
03 22.06 З 3-8
{8}
н/о н/о +30.7 +5.0 20 +29 +29 жарко 1004.3 1004.0
06 22.06 СЗ 4-9
{10}
н/о н/о +37.2 +2.9 12 +34 +34 очень
жарко
1004.2 1004.0
09 22.06 З 5-11
{12}
н/о н/о +41.3 +0.2 8 +38 +38 очень
жарко
1002.8 1003.0
12 22.06 В 4-10
{12}
н/о н/о +42.7 +2.4 9 +39 +39 очень
жарко
1001.1 1001.0
15 22.06 З 5-11
{12}
н/о н/о +41.0 +3.8 10 +38 +38 очень
жарко
1000.8 1001.0
18 22.06 З 5-9
{14}
н/о н/о +37.2 +4.6 13 +34 +34 очень
жарко
1002.0 1002.0
21 22.06 З 5-8
{12}
н/о н/о +34.1 +5.7 17 +32 +32 жарко 1002.3 1002.0 +29.8 +43.0
00 23.06 З 4-8
{12}
н/о н/о +31.4 +4.2 18 +29 +29 жарко 1002.3 1002.0
03 23.06 З 4-7
{8}
н/о н/о +30.2 +5.2 21 +29 +29 жарко 1003.7 1004.0
06 23.06 СЗ 4-8
{11}
н/о н/о +36.6 +5.7 15 +34 +34 очень
жарко
1003.9 1004.0
09 23.06 СЗ 4-10
{14}
н/о н/о +40.3 +4.5 11 +37 +37 очень
жарко
1002.5 1003.0
12 23.06 З 4-9
{14}
н/о н/о +42.0 +1.9 9 +39 +39 очень
жарко
1000.9 1001.0
15 23.06 СЗ 5-10
{12}
н/о н/о +39.8 +0.7 9 +36 +36 очень
жарко
1000.8 1001.0
18 23.06 З 3-5
{12}
н/о н/о +36.5 +0.1 10 +33 +33 жарко 1002.2 1002.0
21 23.06 З 3-6
{7}
н/о н/о +32.8 -0.9 11 +29 +29 жарко 1002.1 1002.0 +29.5 +42.1
00 24.06 З 4-5
{7}
н/о н/о +29.5 -0.8 14 +27 +27 жарко 1001.9 1002.0
03 24.06 З 5-7
{7}
н/о н/о +28.9 +1.3 17 +27 +27 жарко 1002.8 1003.0
06 24.06 СЗ 4-8
{10}
н/о н/о +37.8 +4.7 13 +35 +35 очень
жарко
1002.8 1003.0
09 24.06 З 3-8
{10}
н/о н/о +41.5 +2.0 9 +38 +38 очень
жарко
1002.1 1002.0
12 24.06 З 3-7
{10}
н/о н/о +44.5 -0.2 6 +41 +41 опасность
перегрева
1000.5 1001.0
15 24.06 В 3-9
{9}
н/о н/о +42.3 +2.2 9 +39 +39 очень
жарко
999.9 1000.0
18 24.06 СЗ 3-6
{9}
н/о н/о +39.3 +2.6 10 +36 +36 очень
жарко
1001.1 1001.0
21 24.06 З 4-8
{9}
н/о н/о +36.0 +3.8 13 +33 +33 жарко 1001.3 1001.0 +27.8 +44.7
00 25.06 СЗ 4-9
{9}
н/о н/о +34.2 +3.8 15 +31 +31 жарко 1001.0 1001.0
03 25.06 З 3-5
{9}
н/о н/о +32.5 +3.9 16 +30 +30 жарко 1002.1 1002.0
06 25.06 С 3-6
{10}
н/о н/о +39.0 +3.6 11 +36 +36 очень
жарко
1002.6 1003.0

 

Местоположение метеостанции Jahra (Кувейт): широта 29.32 долгота 47.67 высота над уровнем моря 55 м.

В архиве по умолчанию представлена погода в Jahra за последнюю неделю. Архивные данные за месяц целиком и за предыдущие месяцы, начиная с января 2011 года, Вы можете получить, выбрав интересующий диапазон дат из раскрывающегося списка и нажав кнопку "Ввод!".


*Определитесь, кто Вы:
робот инопланетянин человек

Внимание! Время в таблицах - всемирное. Для получения местного времени необходимо прибавить поправку, которая в Jahra равна 3 ч.

Смотрите также архив погоды в соседних городах и на ближайших метеорологических станциях:

Погода в Sulaibiya (Кувейт) (7 км)
Погода в Experimental Farm (Кувейт) (26 км)
Погода в Minagish (Кувейт) (31 км)
Погода в Kuwait (Кувейт) (31 км)
Погода в Jal Aliyah (Кувейт) (33 км)
Погода в Kuwait City (Кувейт) (37 км)
Погода в Al-Shuaiba (Кувейт) (42 км)
Погода в Sabriyah (Кувейт) (51 км)
Погода в Failaka Island (Кувейт) (61 км)
Погода в Mitribah (Кувейт) (63 км)

Пояснения к столбцам:

Ветер - указаны скорость ветра в м/с - средняя за 10 мин, порывы в срок и между сроками (в фигурных скобках) и направление, откуда дует ветер: С - северный, СВ - северо-восточный, В - восточный, ЮВ - юго-восточный, Ю - южный, ЮЗ - юго-западный, З - западный, СЗ - северо-западный.
Видимость - горизонтальная дальность видимости в метрах или километрах. При видимости от 1 до 10 км при отсутствии осадков обычно наблюдается дымка, при ухудшении видимости до 1 км и менее - туман. В сухую погоду видимость может ухудшаться дымом, пылью или мглою.
Явления - указаны атмосферные явления, наблюдавшиеся в срок или в последний час перед сроком; фигурными скобками обозначены явления, наблюдавшиеся между сроками (за 1-3 часа до срока); квадратными скобками обозначены град или гололедные отложения с указанием их диаметра в мм.
Облачность - указаны через наклонную черту общая и нижняя облачность в баллах и высота нижней границы облаков в метрах; квадратными скобками обозначены формы облаков: Ci - перистые, Cs - перисто-слоистые, Cc - перисто-кучевые, Ac - высококучевые, As - высокослоистые, Sc - слоисто-кучевые, Ns - слоисто-дождевые, Cu - кучевые, Cb - кучево-дождевые. Подробнее классификацию облаков см. в Атласе облаков (PDF).
T - Температура воздуха - температура, измеренная на высоте 2 м над землей.
Td - Температура точки росы - температура, при понижении до которой содержащийся в воздухе водяной пар достигнет насыщения.
f - Относительная влажность воздуха - влажноcть воздуха, измеренная на высоте 2 м над землей.
Te - Эффективная температура - температура, которую ощущает одетый по сезону человек в тени. Характеристика душности погоды. При расчете учитывается влияние влажности воздуха и скорости ветра на теплоощущения человека.
Tes - Эффективная температура на солнце - температура, которую ощущает человек, с поправкой на солнечный нагрев. Характеристика знойности погоды. Зависит от высоты солнца над горизонтом, облачности и скорости ветра. Ночью, в пасмурную погоду, а также при ветре 12 м/с и более поправка равна нулю.
P - Атмосферное давление - приведенное к уровню моря атмосферное давление.
Po - Атмосферное давление - измеренное на уровне метеостанции атмосферное давление.
Tmin - Минимальная температура - минимум температуры воздуха на высоте 2 м над землей.
Tmax - Максимальная температура - максимум температуры воздуха на высоте 2 м над землей.
R - Количество осадков - Количество выпавших осадков за период времени, мм. При наведении курсора мыши на число - период времени, за который выпало указанное количество осадков.
R24 - Количество осадков - Количество выпавших осадков за 24 часа, мм.
S - Снежный покров - Высота снежного покрова, см. При наведении курсора мыши на число - состояние снежного покрова и степень покрытия местности в баллах.